Tracking 19576 objects as of 17-Feb-2019
HD Live streaming from Space Station
objects crossing your sky now

COSMOS 1823 DEB

Track COSMOS 1823 DEB now!
10-day predictions


NORAD ID: 18910
Int'l Code: 1987-020AU
Perigee: 1,464.6 km
Apogee: 1,497.7 km
Inclination: 73.7 °
Period: 115.4 minutes
Semi major axis: 7852 km
RCS: 0.0485 m2 (small)
Launch date: February 20, 1987
Source: Commonwealth of Independent States (former USSR) (CIS)
Launch site: PLESETSK MISSILE AND SPACE COMPLEX (PKMTR)

Note: This is SATELLITE DEBRIS
aabbcc
Your satellite tracking list
Your tracking list is empty




NASA's NSSDC Master Catalog

Two Line Element Set (TLE):
1 18910U 87020AU  19046.83297920 +.00000013 +00000-0 +20929-3 0  9995
2 18910 073.6789 329.2954 0021078 240.6216 177.1050 12.47740038416631
Source of the keplerian elements: AFSPC